Blacksburg, VA

12:28 PM EDT on September 29, 2016 (GMT -0400)
Virginia Tech

Weather History for KBCB - October, 2013

Change the Weather History Date:

Saturday, October 12, 2013

  Actual Average Record
Temperature  
Mean Temperature 60 °F 53 °F  
Max Temperature 65 °F 66 °F 84 °F (1954)
Min Temperature 55 °F 40 °F 24 °F (1964)
Degree Days  
Heating Degree Days 5 12  
Month to date heating degree days 58 122  
Since 1 July heating degree days 191 253  
Cooling Degree Days 0 0  
Month to date cooling degree days 7 1  
Year to date cooling degree days 568 570  
Growing Degree Days 10 (Base 50)    
Moisture  
Dew Point 61 °F    
Average Humidity 97    
Maximum Humidity 100    
Minimum Humidity 93    
Precipitation  
Precipitation 0.04 in 0.09 in 0.76 in (2014)
Month to date precipitation 2.02 1.08  
Year to date precipitation 42.70 33.37  
Snow  
Snow 0.00 in - - ()
Month to date snowfall 0.0  
Since 1 July snowfall 0.0  
Since 1 September snowfall 0.0  
Snow Depth 0.00 in    
Sea Level Pressure  
Sea Level Pressure 30.12 in    
Wind  
Wind Speed 2 mph (ENE)    
Max Wind Speed 7 mph    
Max Gust Speed -    
Visibility 8 miles    
Events Rain    
T = Trace of Precipitation, MM = Missing Value Source: NWS Daily Summary

Daily Weather History Graph

Daily Weather History Graph

Search for Another Location

Airport or City:

Trip Planner

Search our weather history database for the weather conditions in past years. The results will help you decide how hot, cold, wet, or windy it might be!

Date:

Astronomy

Oct. 12, 2013 Rise Set
Actual Time 7:26 AM EDT 6:48 PM EDT
Civil Twilight 7:00 AM EDT 7:14 PM EDT
Nautical Twilight 6:30 AM EDT 7:44 PM EDT
Astronomical Twilight 6:00 AM EDT 8:14 PM EDT
Moon 2:49 PM EDT (10/12) 12:37 AM EDT (10/12)
Length of Visible Light 12h 13m
Length of Day
11h 21m
First Quarter, 58% of the Moon is Illuminated
Oct 12
First Quarter
Oct 18
Full
Oct 26
Last Quarter
Nov 3
New
Nov 10
First Quarter

Hourly Weather History & Observations

Time (EDT) Temp. Dew Point Humidity Pressure Visibility Wind Dir Wind Speed Gust Speed Precip Events Conditions
12:15 AM 60.8 °F 60.8 °F 100% 30.07 in 10.0 mi Calm Calm - N/A   Overcast
12:35 AM 60.8 °F 60.8 °F 100% 30.06 in 10.0 mi Calm Calm - N/A   Overcast
12:55 AM 60.8 °F 60.8 °F 100% 30.06 in 10.0 mi Calm Calm - N/A   Overcast
1:15 AM 60.8 °F 60.8 °F 100% 30.06 in 10.0 mi Calm Calm - N/A   Overcast
1:35 AM 60.8 °F 60.8 °F 100% 30.06 in 10.0 mi NE 3.5 mph - N/A   Overcast
1:55 AM 59.0 °F 59.0 °F 100% 30.06 in 4.0 mi ENE 3.5 mph - N/A   Overcast
2:15 AM 59.0 °F 59.0 °F 100% 30.06 in 4.0 mi Calm Calm - N/A Rain Light Rain
2:35 AM 59.0 °F 59.0 °F 100% 30.06 in 3.0 mi NE 4.6 mph - N/A   Drizzle
2:55 AM 57.2 °F 57.2 °F 100% 30.06 in 4.0 mi NE 4.6 mph - N/A   Drizzle
3:15 AM 57.2 °F 57.2 °F 100% 30.06 in 4.0 mi Calm Calm - N/A Rain Rain
3:35 AM 57.2 °F 57.2 °F 100% 30.06 in 5.0 mi Calm Calm - N/A   Light Drizzle
3:55 AM 57.2 °F 57.2 °F 100% 30.07 in 5.0 mi North 3.5 mph - N/A   Overcast
4:15 AM 57.2 °F 57.2 °F 100% 30.07 in 5.0 mi Calm Calm - N/A   Overcast
4:35 AM 57.2 °F 57.2 °F 100% 30.07 in 10.0 mi NNW 3.5 mph - N/A   Overcast
4:55 AM 57.2 °F 57.2 °F 100% 30.07 in 10.0 mi Calm Calm - N/A   Overcast
5:15 AM 57.2 °F 57.2 °F 100% 30.07 in 10.0 mi Calm Calm - N/A   Overcast
5:35 AM 57.2 °F 57.2 °F 100% 30.08 in 10.0 mi Calm Calm - N/A   Overcast
5:55 AM 57.2 °F 57.2 °F 100% 30.09 in 10.0 mi Calm Calm - N/A   Overcast
6:15 AM 57.2 °F 57.2 °F 100% 30.09 in 10.0 mi Calm Calm - N/A   Overcast
6:35 AM 57.2 °F 57.2 °F 100% 30.10 in 10.0 mi Calm Calm - N/A   Overcast
6:55 AM 57.2 °F 57.2 °F 100% 30.10 in 7.0 mi Calm Calm - N/A   Overcast
7:15 AM 57.2 °F 57.2 °F 100% 30.10 in 3.0 mi Calm Calm - N/A   Overcast
7:35 AM 57.2 °F 57.2 °F 100% 30.11 in 4.0 mi Calm Calm - N/A   Overcast
7:55 AM 57.2 °F 57.2 °F 100% 30.11 in 2.5 mi Calm Calm - N/A   Overcast
8:15 AM 57.2 °F 57.2 °F 100% 30.12 in 4.0 mi Calm Calm - N/A   Overcast
8:35 AM 59.0 °F 59.0 °F 100% 30.12 in 10.0 mi Calm Calm - N/A   Overcast
8:55 AM 59.0 °F 59.0 °F 100% 30.12 in 10.0 mi Calm Calm - N/A   Overcast
9:15 AM 60.8 °F 60.8 °F 100% 30.12 in 10.0 mi Calm Calm - N/A   Overcast
9:35 AM 60.8 °F 60.8 °F 100% 30.12 in 10.0 mi WNW 3.5 mph - N/A   Overcast
9:55 AM 60.8 °F 60.8 °F 100% 30.13 in 10.0 mi Calm Calm - N/A   Overcast
10:15 AM 60.8 °F 60.8 °F 100% 30.13 in 10.0 mi Calm Calm - N/A   Overcast
10:35 AM 60.8 °F 60.8 °F 100% 30.13 in 7.0 mi Calm Calm - N/A   Overcast
10:55 AM 60.8 °F 60.8 °F 100% 30.14 in 1.8 mi Calm Calm - N/A   Heavy Drizzle
11:15 AM 60.8 °F 60.8 °F 100% 30.14 in 5.0 mi Calm Calm - N/A   Drizzle
11:35 AM 62.6 °F 62.6 °F 100% 30.13 in 10.0 mi ENE 4.6 mph - N/A   Overcast
11:55 AM 64.4 °F 62.6 °F 94% 30.13 in 10.0 mi East 4.6 mph - N/A   Overcast
12:15 PM 64.4 °F 62.6 °F 94% 30.13 in 10.0 mi ENE 4.6 mph - N/A   Overcast
12:35 PM 62.6 °F 62.6 °F 100% 30.13 in 10.0 mi ENE 3.5 mph - N/A   Overcast
12:55 PM 62.6 °F 62.6 °F 100% 30.13 in 7.0 mi East 3.5 mph - N/A Rain Light Rain
1:15 PM 64.4 °F 62.6 °F 94% 30.13 in 10.0 mi NE 3.5 mph - N/A   Overcast
1:35 PM 64.4 °F 62.6 °F 94% 30.12 in 10.0 mi East 4.6 mph - N/A   Overcast
1:55 PM 64.4 °F 62.6 °F 94% 30.12 in 10.0 mi NE 5.8 mph - N/A   Overcast
2:15 PM 64.4 °F 62.6 °F 94% 30.12 in 10.0 mi ENE 4.6 mph - N/A   Overcast
2:35 PM 64.4 °F 62.6 °F 94% 30.12 in 5.0 mi NE 4.6 mph - N/A   Overcast
2:55 PM 62.6 °F 62.6 °F 100% 30.12 in 3.0 mi Calm Calm - N/A   Drizzle
3:15 PM 62.6 °F 62.6 °F 100% 30.12 in 7.0 mi Calm Calm - N/A   Drizzle
3:35 PM 64.4 °F 64.4 °F 100% 30.12 in 10.0 mi Calm Calm - N/A   Overcast
3:55 PM 64.4 °F 62.6 °F 94% 30.12 in 10.0 mi Calm Calm - N/A   Overcast
4:15 PM 64.4 °F 64.4 °F 100% 30.12 in 10.0 mi NE 3.5 mph - N/A   Overcast
4:35 PM 64.4 °F 62.6 °F 94% 30.12 in 10.0 mi NE 4.6 mph - N/A   Overcast
4:55 PM 64.4 °F 62.6 °F 94% 30.13 in 10.0 mi NE 3.5 mph - N/A   Overcast
5:15 PM 64.4 °F 62.6 °F 94% 30.14 in 10.0 mi ENE 4.6 mph - N/A   Overcast
5:35 PM 64.4 °F 62.6 °F 94% 30.14 in 10.0 mi ENE 4.6 mph - N/A   Overcast
5:55 PM 64.4 °F 62.6 °F 94% 30.15 in 10.0 mi East 4.6 mph - N/A   Overcast
6:15 PM 62.6 °F 62.6 °F 100% 30.15 in 5.0 mi Calm Calm - N/A   Overcast
6:35 PM 62.6 °F 62.6 °F 100% 30.15 in 10.0 mi North 3.5 mph - N/A   Overcast
6:55 PM 62.6 °F 62.6 °F 100% 30.16 in 7.0 mi Calm Calm - N/A   Overcast
7:15 PM 62.6 °F 62.6 °F 100% 30.16 in 10.0 mi Calm Calm - N/A   Overcast
7:35 PM 62.6 °F 62.6 °F 100% 30.17 in 10.0 mi Calm Calm - N/A   Overcast
7:55 PM 62.6 °F 62.6 °F 100% 30.17 in 10.0 mi Calm Calm - N/A   Overcast
8:15 PM 62.6 °F 62.6 °F 100% 30.17 in 10.0 mi Calm Calm - N/A   Overcast
8:35 PM 62.6 °F 62.6 °F 100% 30.18 in 10.0 mi NE 4.6 mph - N/A   Overcast
8:55 PM 62.6 °F 62.6 °F 100% 30.18 in 10.0 mi NE 6.9 mph - N/A Rain Light Rain
9:15 PM 62.6 °F 62.6 °F 100% 30.18 in 10.0 mi NE 4.6 mph - N/A   Overcast
9:35 PM 62.6 °F 62.6 °F 100% 30.18 in 10.0 mi NE 5.8 mph - N/A   Overcast
9:55 PM 62.6 °F 62.6 °F 100% 30.18 in 5.0 mi NE 5.8 mph - N/A   Heavy Drizzle
10:15 PM 62.6 °F 62.6 °F 100% 30.19 in 3.0 mi East 3.5 mph - 0.01 in   Heavy Drizzle
10:35 PM 60.8 °F 60.8 °F 100% 30.19 in 3.0 mi East 5.8 mph - 0.01 in   Drizzle
10:55 PM 60.8 °F 60.8 °F 100% 30.19 in 3.0 mi East 6.9 mph - 0.02 in   Drizzle
11:15 PM 60.8 °F 60.8 °F 100% 30.19 in 4.0 mi East 5.8 mph - N/A   Light Drizzle
11:35 PM 60.8 °F 60.8 °F 100% 30.19 in 5.0 mi East 5.8 mph - N/A   Overcast
11:55 PM 60.8 °F 60.8 °F 100% 30.18 in 7.0 mi ENE 4.6 mph - N/A   Overcast